Flag for U.S.A. Weather past 2 weeks in Cedar Rapids, Iowa, U.S.A.

Now
32 °F

Ice fog.


Feels Like: 24 °F
Forecast: 33 / 40 °F
Wind: 9 mph from Southeast

Location: Cedar Rapids Municipal Airport

Current Time: Dec 20, 2014 at 7:23:00 PM

Latest Report: Dec 20, 2014 at 6:52 PM


Visibility: 2 mi

Pressure: 30.19 "Hg

Humidity: 100%

Dew point: 32 °F

Location of Cedar RapidsLocation

Historic Weather in Cedar Rapids — Graph

°F

Cedar Rapids temperature yesterday

Maximum temperature yesterday: 32 °F (at 2:52 PM)
Minimum temperature yesterday: 22 °F (at 7:52 AM)
Average temperature yesterday: 27 °F

Past Weeks' High & Low Weather Summary

 TemperatureHumidityPressure
High54 °F (Dec 14, 1:59 PM)100% (Dec 5, 9:52 PM)30.64 "Hg (Dec 5, 9:52 PM)
Low12 °F (Dec 18, 12:52 AM)50% (Dec 12, 2:52 PM)29.60 "Hg (Dec 15, 3:54 PM)
Average32 °F87%30.23 "Hg
* Reported Dec 5 5:52 PM — Dec 20 5:52 PM, Cedar Rapids, Weather by CustomWeather, © 2014

Note: Actual official high and low records may vary slightly from our data, if they occured in-between our weather recording intervals... More about our weather records

Advertising

Cedar Rapids weather history for previous 24 hours

 ConditionsComfort  
Time TempWeatherWind HumidityBarometerVisibility
5:52 PM
Dec 20
32 °FIce fog.6 mph100%30.21 "Hg1 mi
4:52 PM31 °FIce fog.6 mph100%30.20 "Hg1 mi
3:52 PM31 °FIce fog.6 mph100%30.19 "Hg1 mi
2:52 PM32 °FIce fog.6 mph96%30.18 "Hg1 mi
1:52 PM32 °FIce fog.6 mph96%30.18 "Hg2 mi
12:52 PM32 °FIce fog.6 mph92%30.20 "Hg2 mi
11:59 AM31 °FIce fog.8 mph96%30.19 "Hg2 mi
10:52 AM31 °FIce fog.7 mph92%30.24 "Hg2 mi
9:52 AM30 °FIce fog.7 mph96%30.24 "Hg2 mi
8:52 AM30 °FIce fog.6 mph92%30.24 "Hg3 mi
7:52 AM29 °FIce fog.5 mph93%30.23 "Hg5 mi
6:52 AM29 °FIce fog.6 mph89%30.24 "Hg6 mi
5:52 AM30 °FLow clouds.6 mph82%30.22 "Hg7 mi
4:52 AM30 °FOvercast.6 mph82%30.23 "Hg7 mi
3:52 AM29 °FOvercast.6 mph82%30.23 "Hg7 mi
2:52 AM29 °FOvercast.7 mph82%30.25 "Hg7 mi
1:52 AM29 °FOvercast.7 mph82%30.24 "Hg8 mi
12:52 AM30 °FOvercast.7 mph75%30.25 "Hg8 mi
11:52 PM
Dec 19
30 °FOvercast.7 mph75%30.26 "Hg9 mi
10:52 PM29 °FOvercast.6 mph79%30.26 "Hg8 mi
9:52 PM29 °FOvercast.5 mph79%30.26 "Hg8 mi
8:52 PM29 °FOvercast.5 mph79%30.25 "Hg8 mi
7:52 PM29 °FOvercast.5 mph75%30.26 "Hg8 mi
Weather by CustomWeather, © 2014

See weather overviewHow to use our weather pages